Location: Newark
(33.6439°N, 114.9881°W)
Time: 04:03:10
(UTC+00:00)

Tiros 1 - Pass Details

Date: 22 July 2019
Orbit: 630 x 664 km, 48.4° (Epoch: 19 August)

Event Time Altitude Azimuth Distance (km) Brightness Sun altitude
Rises 01:52:31 0° 309° (NW) 2,990 12.0 9.9°
Reaches altitude 10° 01:54:53 10° 311° (NW) 2,073 11.3 9.4°
Maximum altitude 01:59:40 80° 38° (NE) 668 7.4 8.5°
Drops below altitude 10° 02:04:24 10° 125° (SE) 2,045 9.2 7.6°
Sets 02:06:43 0° 127° (SE) 2,947 9.9 7.1°
